• In Spain
  • List of Countries
  • For 7 days
  • Water Temperature
  • Satellite Maps
  • Weather Map
  • Weather Widgets
  • user-avatar
    Login

    Hourly Weather Ischgl

    Today, 23 June, Saturday

    Time Temperature Precipitation Wind Pressure Humidity
    00:00 -2°C° 0 mm 2 mps 577 mmHg 91%
    01:00 -2°C° 0 mm 2 mps 577 mmHg 93%
    02:00 -2°C° 0 mm 2 mps 577 mmHg 93%
    03:00 -1°C° 0 mm 1 mps 577 mmHg 92%
    04:00 -1°C° 0 mm 1 mps 576 mmHg 92%
    05:00 0°C° 0 mm 1 mps 577 mmHg 84%
    06:00 +2°C° 0 mm 1 mps 578 mmHg 76%
    07:00 +3°C° 0 mm 1 mps 578 mmHg 70%
    08:00 +4°C° 0 mm 2 mps 579 mmHg 61%
    09:00 +6°C° 0 mm 2 mps 579 mmHg 52%
    10:00 +7°C° 0 mm 2 mps 580 mmHg 43%
    11:00 +8°C° 0 mm 2 mps 580 mmHg 41%
    12:00 +9°C° 0 mm 3 mps 581 mmHg 39%
    13:00 +10°C° 0 mm 3 mps 581 mmHg 37%
    14:00 +10°C° 0 mm 3 mps 581 mmHg 40%
    15:00 +9°C° 0 mm 3 mps 580 mmHg 43%
    16:00 +9°C° 0 mm 3 mps 580 mmHg 45%
    17:00 +8°C° 0 mm 3 mps 579 mmHg 52%
    18:00 +7°C° 0 mm 3 mps 579 mmHg 59%
    19:00 +5°C° 0 mm 3 mps 579 mmHg 65%
    20:00 +4°C° 0 mm 2 mps 578 mmHg 74%
    21:00 +3°C° 0 mm 2 mps 578 mmHg 82%
    22:00 +2°C° 0 mm 1 mps 577 mmHg 91%
    23:00 +2°C° 0 mm 1 mps 577 mmHg 92%

    Tomorrow, 24 June, Sunday

    Time Temperature Precipitation Wind Pressure Humidity
    00:00 +1°C° 0 mm 1 mps 577 mmHg 92%
    01:00 +1°C° 0 mm 1 mps 577 mmHg 93%
    02:00 +1°C° 0 mm 1 mps 576 mmHg 92%
    03:00 0°C° 0 mm 1 mps 576 mmHg 92%
    04:00 0°C° 0 mm 1 mps 575 mmHg 91%
    05:00 +2°C° 0 mm 1 mps 576 mmHg 83%
    06:00 +3°C° 0 mm 1 mps 577 mmHg 76%
    07:00 +5°C° 0 mm 1 mps 578 mmHg 68%
    08:00 +6°C° 0 mm 1 mps 578 mmHg 64%
    09:00 +7°C° 0 mm 1 mps 578 mmHg 61%
    10:00 +7°C° 0 mm 2 mps 579 mmHg 57%
    11:00 +7°C° 0.4 mm 2 mps 579 mmHg 59%
    12:00 +7°C° 0.4 mm 2 mps 579 mmHg 61%
    13:00 +7°C° 0.4 mm 2 mps 578 mmHg 64%
    14:00 +7°C° 0.5 mm 2 mps 578 mmHg 66%
    15:00 +7°C° 0.5 mm 2 mps 578 mmHg 69%
    16:00 +7°C° 0.5 mm 2 mps 578 mmHg 72%
    17:00 +6°C° 0.3 mm 2 mps 577 mmHg 76%
    18:00 +5°C° 0.3 mm 2 mps 577 mmHg 80%
    19:00 +5°C° 0.3 mm 2 mps 577 mmHg 84%
    20:00 +4°C° 0.1 mm 2 mps 577 mmHg 88%
    21:00 +3°C° 0.1 mm 2 mps 576 mmHg 92%
    22:00 +3°C° 0.1 mm 1 mps 576 mmHg 96%
    23:00 +3°C° 0 mm 1 mps 576 mmHg 96%

    Day after tomorrow, 25 June, Monday

    Time Temperature Precipitation Wind Pressure Humidity
    00:00 +2°C° 0 mm 1 mps 576 mmHg 96%
    01:00 +2°C° 0 mm 1 mps 576 mmHg 96%
    02:00 +2°C° 0 mm 1 mps 575 mmHg 96%
    03:00 +1°C° 0 mm 1 mps 575 mmHg 96%
    04:00 +1°C° 0 mm 1 mps 575 mmHg 96%
    05:00 +2°C° 0.1 mm 1 mps 575 mmHg 93%
    06:00 +2°C° 0.1 mm 2 mps 576 mmHg 90%
    07:00 +3°C° 0.1 mm 2 mps 576 mmHg 87%
    08:00 +4°C° 0.1 mm 2 mps 577 mmHg 82%
    09:00 +5°C° 0.1 mm 2 mps 578 mmHg 77%
    10:00 +6°C° 0.1 mm 2 mps 578 mmHg 71%
    11:00 +7°C° 0.1 mm 2 mps 579 mmHg 69%
    12:00 +8°C° 0.1 mm 2 mps 579 mmHg 67%
    13:00 +8°C° 0.1 mm 3 mps 579 mmHg 65%
    14:00 +9°C° 0.2 mm 3 mps 579 mmHg 65%
    15:00 +9°C° 0.2 mm 3 mps 579 mmHg 64%
    16:00 +9°C° 0.2 mm 3 mps 579 mmHg 64%
    17:00 +8°C° 0.1 mm 3 mps 579 mmHg 70%
    18:00 +7°C° 0.1 mm 3 mps 579 mmHg 75%
    19:00 +6°C° 0.1 mm 2 mps 579 mmHg 80%
    20:00 +5°C° 0 mm 2 mps 578 mmHg 85%
    21:00 +4°C° 0 mm 2 mps 578 mmHg 90%
    22:00 +4°C° 0 mm 1 mps 578 mmHg 95%
    23:00 +3°C° 0 mm 1 mps 578 mmHg 95%

    26 June, Tuesday

    Time Temperature Precipitation Wind Pressure Humidity
    00:00 +3°C° 0 mm 1 mps 577 mmHg 96%
    01:00 +2°C° 0 mm 1 mps 577 mmHg 96%
    02:00 +2°C° 0 mm 1 mps 577 mmHg 95%
    03:00 +2°C° 0 mm 1 mps 577 mmHg 95%
    04:00 +1°C° 0 mm 1 mps 576 mmHg 94%
    05:00 +3°C° 0 mm 1 mps 577 mmHg 90%
    06:00 +4°C° 0 mm 1 mps 578 mmHg 85%
    07:00 +6°C° 0 mm 1 mps 578 mmHg 80%
    08:00 +6°C° 0 mm 2 mps 579 mmHg 74%
    09:00 +8°C° 0 mm 2 mps 580 mmHg 68%
    10:00 +9°C° 0 mm 2 mps 580 mmHg 62%
    11:00 +10°C° 0 mm 2 mps 580 mmHg 60%
    12:00 +12°C° 0 mm 2 mps 581 mmHg 57%
    13:00 +12°C° 0 mm 2 mps 581 mmHg 55%
    14:00 +13°C° 0 mm 2 mps 581 mmHg 56%
    15:00 +12°C° 0 mm 3 mps 581 mmHg 57%
    16:00 +12°C° 0 mm 3 mps 581 mmHg 58%
    17:00 +11°C° 0.1 mm 3 mps 580 mmHg 65%
    18:00 +10°C° 0.1 mm 2 mps 580 mmHg 72%
    19:00 +9°C° 0.1 mm 2 mps 580 mmHg 79%
    20:00 +7°C° 0 mm 2 mps 579 mmHg 85%
    21:00 +7°C° 0 mm 1 mps 579 mmHg 91%
    22:00 +5°C° 0 mm 1 mps 578 mmHg 96%
    23:00 +5°C° 0 mm 1 mps 578 mmHg 96%

    27 June, Wednesday

    Time Temperature Precipitation Wind Pressure Humidity
    00:00 +4°C° 0 mm 1 mps 578 mmHg 96%
    01:00 +4°C° 0 mm 1 mps 577 mmHg 96%
    02:00 +3°C° 0 mm 1 mps 577 mmHg 94%
    03:00 +3°C° 0 mm 1 mps 577 mmHg 93%
    04:00 +3°C° 0 mm 1 mps 577 mmHg 92%
    05:00 +5°C° 0 mm 1 mps 578 mmHg 84%
    06:00 +7°C° 0 mm 1 mps 579 mmHg 77%
    07:00 +8°C° 0 mm 1 mps 580 mmHg 70%
    08:00 +10°C° 0 mm 1 mps 580 mmHg 60%
    09:00 +12°C° 0 mm 1 mps 581 mmHg 50%
    10:00 +14°C° 0 mm 2 mps 582 mmHg 41%
    11:00 +15°C° 0 mm 2 mps 582 mmHg 39%
    12:00 +16°C° 0 mm 2 mps 582 mmHg 38%
    13:00 +16°C° 0 mm 3 mps 582 mmHg 36%
    14:00 +16°C° 0 mm 3 mps 582 mmHg 39%
    15:00 +16°C° 0 mm 3 mps 582 mmHg 41%
    16:00 +16°C° 0 mm 3 mps 582 mmHg 43%
    17:00 +14°C° 0 mm 3 mps 581 mmHg 51%
    18:00 +12°C° 0 mm 3 mps 580 mmHg 59%
    19:00 +12°C° 0 mm 2 mps 580 mmHg 67%
    20:00 +9°C° 0 mm 2 mps 579 mmHg 76%
    21:00 +8°C° 0 mm 1 mps 578 mmHg 84%
    22:00 +5°C° 0 mm 1 mps 577 mmHg 93%
    23:00 +5°C° 0 mm 1 mps 577 mmHg 92%

    28 June, Thursday

    Time Temperature Precipitation Wind Pressure Humidity
    00:00 +5°C° 0 mm 1 mps 576 mmHg 92%
    01:00 +3°C° 0 mm 0 mps 576 mmHg 92%
    02:00 +4°C° 0 mm 1 mps 576 mmHg 91%
    03:00 +4°C° 0 mm 1 mps 575 mmHg 90%
    04:00 +3°C° 0 mm 1 mps 575 mmHg 89%
    05:00 +5°C° 0 mm 1 mps 576 mmHg 82%
    06:00 +7°C° 0 mm 1 mps 577 mmHg 76%
    07:00 +9°C° 0 mm 1 mps 578 mmHg 69%
    08:00 +9°C° 0 mm 2 mps 578 mmHg 62%
    09:00 +12°C° 0 mm 2 mps 579 mmHg 55%
    10:00 +13°C° 0 mm 2 mps 579 mmHg 48%
    11:00 +14°C° 0 mm 2 mps 579 mmHg 46%
    12:00 +13°C° 0 mm 3 mps 579 mmHg 44%
    13:00 +14°C° 0 mm 3 mps 579 mmHg 42%
    14:00 +13°C° 0.2 mm 3 mps 578 mmHg 46%
    15:00 +13°C° 0.2 mm 3 mps 578 mmHg 49%
    16:00 +12°C° 0.2 mm 3 mps 577 mmHg 53%
    17:00 +11°C° 0.4 mm 3 mps 577 mmHg 61%
    18:00 +9°C° 0.4 mm 3 mps 576 mmHg 69%
    19:00 +8°C° 0.4 mm 2 mps 576 mmHg 77%
    20:00 +6°C° 0.2 mm 2 mps 575 mmHg 83%
    21:00 +5°C° 0.2 mm 2 mps 574 mmHg 88%
    22:00 +4°C° 0.2 mm 1 mps 574 mmHg 93%
    23:00 +4°C° 0 mm 1 mps 574 mmHg 92%
    Show more